OneWeb SL0594

operational
NORAD ID: 54660 Int'l Des: 2022-166 Owner: ONEWEBN Country: UK Constellation: oneweb
LEOCIRCULARPOLARONEWEB_TYPE

Über OneWeb SL0594

Beschreibung wird geladen...

Live-Position

3D-Globus wird geladen...

Nächste Überflüge

Höhenverlauf

Altitude vs Time

uPlot chart will show altitude changes over time

Zweizeiliger Elementsatz

1 54660U 22166U 25298.69618527 .00000332 00000-0 77287-3 0 9990
2 54660 87.9167 290.7827 0001901 90.0423 270.0928 13.21824717140587
Epoch: 25. Okt. 2025 • Age: 12 hours

Aktueller Status

Höhe 1185.0 km
Geschwindigkeit 7.27 km/s
Subsatellitenpunkt 51.28°N, 9.43°E
Startdatum 8. Dez. 2022
Alter 2.8 years
Typ internet

Technische Details

Klassifizierung Payload
Masse 148.00 kg
Trockenmasse 140.00 kg
Gesamtmasse 148.00 kg
Länge 1.30 m
Durchmesser 1.00 m
Spannweite 5.00 m
Form Trapezoid+2 pan
Hersteller ONEWUS
Bus-Typ ARROW
Phasenstatus In Orbit
Besitzer/Staat ONEWEBN/UK

Große Konstellationen

Loading constellations...